Temperature
26 26 26 25 23 23 23 22 21 21 18 12 11 11 9 9 8 8 8 9 9 9 10 10 10 11 11 11 10 10 10 10 8 9 11 9 10 11 12 12 13 13 13 13
25 26 25 24 20 20 19 17 19 16 14 13 11 10 9 9 8 8 9 10 10 10 11 11 11 11 10 10 10 10 10 10 10 10 8 9 10 11 11 11 12 12 12 12
25 25 24 21 16 16 15 14 15 14 12 12 11 10 11 12 13 13 12 12 12 12 12 12 11 11 11 11 11 11 11 11 11 11 10 10 10 10 10 10 11 12 12 12
24 23 22 16 16 16 15 13 13 12 11 11 12 13 14 14 13 13 12 12 12 11 11 11 11 11 10 10 11 11 11 11 11 11 11 10 10 10 10 10 10 11 11 11
23 23 18 15 16 16 15 14 13 12 14 15 14 14 15 15 13 12 11 11 11 11 10 10 10 10 10 10 10 10 10 10 10 10 10 10 10 10 9 9 9 10 11 11
22 21 21 16 16 16 16 14 13 14 15 14 14 14 14 13 11 11 10 10 10 10 9 9 9 9 9 9 9 9 9 9 9 9 9 9 10 9 9 9 9 9 9 10
20 20 18 16 16 16 17 15 15 14 13 13 12 13 12 11 11 11 10 10 9 9 9 9 8 8 7 7 7 8 8 8 8 8 9 9 9 9 9 9 9 9 9 9
20 19 17 15 15 15 15 14 13 13 12 12 11 11 11 11 10 10 10 9 9 9 8 8 7 6 6 5 6 6 6 7 7 7 8 9 9 9 9 9 9 9 9 8
18 18 16 15 15 14 13 13 12 12 11 11 11 10 10 10 10 9 9 9 9 8 7 6 5 5 4 4 4 4 5 5 5 6 7 8 8 8 8 9 9 10 10 8
17 17 16 15 14 13 12 11 11 11 11 10 10 10 10 9 9 9 9 8 8 8 6 4 4 4 3 4 4 4 4 5 5 5 6 6 7 8 9 10 10 10 9 8
16 17 15 15 13 12 11 11 11 10 10 10 10 9 9 9 9 8 8 8 8 7 5 4 3 3 4 4 3 3 4 4 4 4 4 5 6 7 8 9 9 10 8 8
16 14 14 13 12 12 11 11 10 10 10 9 9 9 9 8 8 8 7 7 7 6 4 3 3 3 3 4 3 3 3 3 3 4 4 4 5 6 7 8 8 8 8 8
13 13 12 12 12 11 11 11 10 10 10 9 9 9 8 8 7 7 6 6 5 4 2 2 3 3 4 4 3 3 3 3 3 3 3 4 4 5 7 8 8 7 7 7
13 12 12 12 11 11 11 10 10 10 9 9 9 8 8 7 6 6 5 4 3 2 1 2 3 3 3 3 3 3 3 3 3 3 3 3 4 5 6 8 8 7 7 8
12 12 12 11 11 11 10 10 10 9 9 8 8 7 7 6 5 5 4 2 1 1 1 2 3 3 3 3 3 3 3 3 3 3 3 3 4 5 7 8 9 8 6 7
12 12 11 11 11 10 10 9 9 9 8 7 7 6 6 5 5 4 2 1 1 1 1 3 3 3 3 3 3 2 2 2 2 2 3 4 5 7 8 8 8 7 6 6
11 11 11 10 10 9 9 8 8 8 7 7 6 6 5 5 3 2 1 1 1 1 2 3 3 3 4 3 3 3 2 3 2 3 4 5 7 8 7 7 7 7 6 6
11 11 10 9 9 9 8 8 7 7 6 6 5 5 4 3 2 2 1 2 2 2 3 3 4 4 4 3 3 3 3 3 4 4 5 6 6 6 6 6 6 6 6 6
11 10 9 9 8 8 7 7 7 6 6 5 5 4 3 2 2 2 2 2 2 3 3 3 4 4 4 3 3 3 3 4 4 5 6 6 6 6 6 6 6 6 6 6
10 10 9 8 8 7 7 6 6 6 5 5 4 3 2 2 2 2 2 2 2 2 3 3 4 4 4 4 4 4 4 4 5 5 6 6 6 6 5 5 5 5 6 6
10 9 8 8 7 7 6 6 6 5 5 4 3 2 2 2 2 2 2 2 3 3 4 4 4 5 4 4 4 5 5 5 6 6 7 7 7 6 5 5 6 7 7 8
9 8 7 7 7 6 6 6 5 5 4 3 2 2 2 3 3 3 4 4 5 5 5 6 5 5 5 5 5 6 7 7 7 8 8 8 8 7 6 7 8 8 8 9
8 7 7 6 6 6 6 5 5 5 4 2 2 2 2 3 3 3 4 5 6 6 6 6 6 6 6 6 6 7 7 7 8 8 9 8 7 7 8 8 9 9 9 10
7 7 6 6 6 6 5 5 5 5 4 3 2 3 3 3 5 6 6 7 8 7 7 7 6 7 6 6 7 7 8 8 8 8 8 8 8 8 9 10 11 11 11 11
7 6 6 6 6 6 5 5 5 5 3 2 3 3 3 4 4 6 7 8 9 10 9 8 8 8 8 8 8 7 8 8 8 9 9 8 9 9 10 11 12 12 12 12
6 6 6 6 6 5 6 5 4 4 3 2 2 3 4 5 6 7 7 8 9 10 10 9 8 8 8 8 9 8 8 8 9 9 10 10 10 10 11 11 11 12 13 13
7 6 6 6 6 5 5 5 5 3 3 2 2 3 4 5 6 7 7 8 9 10 8 8 8 8 8 8 9 9 10 10 11 11 11 11 11 11 11 12 12 12 12 12
Wind_Speed
12 14 9 8 8 10 10 9 10 12 7 4 9 11 12 13 14 16 15 14 14 14 14 12 12 12 12 11 11 11 10 10 13 12 10 14 17 16 15 13 15 17 16 13
13 9 6 1 10 9 7 8 8 6 3 7 11 11 14 16 16 18 18 17 17 16 18 15 14 14 15 13 13 14 15 16 15 13 13 14 14 14 15 12 10 14 17 15
9 5 9 1 9 9 4 4 5 3 7 14 16 14 17 18 18 18 18 20 22 23 23 23 22 20 21 17 16 16 14 15 13 10 13 14 13 13 16 15 12 11 16 16
9 12 7 5 6 6 6 2 1 3 11 14 17 18 20 21 17 18 22 24 24 24 25 25 25 25 24 24 23 22 21 20 21 18 19 20 15 14 15 14 12 11 13 16
6 9 4 4 7 9 11 10 9 10 17 21 23 24 21 16 18 21 24 25 25 26 27 27 26 26 25 24 23 23 23 22 23 23 21 20 19 16 16 14 14 12 10 12
7 9 4 6 11 13 10 7 6 18 25 26 26 23 19 21 21 24 26 26 27 28 28 26 25 25 25 24 24 24 24 22 21 22 20 20 17 16 15 15 16 15 11 8
8 7 4 7 14 14 10 14 22 25 27 27 24 22 25 26 26 27 28 29 29 29 25 23 21 20 22 23 23 24 22 21 21 22 20 18 16 15 15 16 17 16 15 10
6 7 3 9 13 10 15 21 25 26 26 26 26 26 27 29 30 29 29 30 29 25 22 20 19 19 22 23 20 20 20 18 21 22 20 18 16 15 15 16 17 16 15 12
4 5 6 10 15 16 19 24 26 24 26 26 27 30 32 30 29 30 30 29 28 27 27 26 22 17 22 23 20 19 17 16 20 22 21 18 17 16 16 16 15 16 12 9
6 5 11 17 18 19 22 24 25 26 27 27 29 32 31 30 30 30 30 29 29 26 24 24 22 18 22 23 19 16 20 21 15 16 18 16 16 14 15 16 14 13 10 9
11 10 16 18 21 23 23 24 26 27 27 28 30 31 31 31 31 29 30 30 29 25 23 24 22 23 24 21 19 19 19 17 14 11 14 16 15 14 15 13 8 8 7 9
10 16 18 22 23 23 24 26 26 28 30 29 29 30 32 31 30 29 30 30 30 24 22 24 23 23 20 21 16 16 16 14 13 11 10 11 12 13 18 15 5 9 13 12
14 18 20 23 23 24 25 26 27 29 30 30 29 31 33 31 30 31 31 31 28 22 23 25 25 24 23 18 17 15 14 12 11 11 10 10 13 13 12 10 6 7 10 14
15 17 20 21 23 25 27 27 28 29 29 29 30 31 31 31 32 31 31 28 24 22 24 25 24 20 19 15 14 13 14 13 11 9 10 12 15 14 13 11 9 6 6 8
16 18 21 23 24 26 27 27 28 28 30 30 30 31 31 32 32 32 30 24 23 24 24 23 21 20 17 16 15 11 10 7 6 7 9 10 11 13 12 10 9 7 8 7
18 19 21 23 25 27 27 28 28 30 31 31 31 31 31 32 32 30 25 23 23 23 24 23 20 18 15 15 11 8 6 7 7 7 9 10 12 12 9 8 9 9 11 13
18 21 23 24 26 27 27 27 29 30 31 31 31 32 33 32 30 27 26 25 24 21 22 20 17 17 15 12 9 5 5 6 7 7 9 11 11 8 7 8 8 9 8 9
17 20 22 24 24 26 27 28 28 29 28 30 31 32 32 29 28 28 27 26 23 20 17 15 14 15 13 8 5 2 2 1 1 5 6 6 5 5 5 6 7 6 5 9
17 19 21 23 23 24 26 26 26 27 27 28 29 28 28 27 27 27 26 24 20 18 18 19 23 17 12 7 3 1 0 3 3 3 3 4 5 5 6 4 1 4 6 7
16 18 20 22 23 23 24 24 25 25 27 28 27 26 27 27 27 25 24 20 15 13 18 20 18 11 9 4 1 2 3 2 4 5 4 5 6 5 5 4 10 12 12 14
17 18 20 21 23 23 22 23 23 25 27 28 27 26 27 27 26 24 21 18 17 18 18 18 13 8 6 4 3 1 3 3 3 4 6 7 7 7 7 9 7 11 16 17
16 17 18 20 21 21 21 22 23 25 26 26 25 25 26 26 25 24 23 18 18 19 15 9 7 5 5 6 4 2 4 4 4 4 4 4 5 5 2 3 6 13 14 14
14 15 17 18 19 20 21 21 23 24 24 24 23 23 22 22 19 17 19 20 19 21 15 8 5 0 5 3 2 1 3 4 4 4 3 3 2 1 1 4 10 14 14 14
13 14 15 16 17 18 20 22 22 21 23 24 22 22 20 19 19 19 18 22 26 23 13 9 8 5 4 2 1 1 1 3 4 5 4 2 0 1 4 8 11 13 14 15
12 13 13 15 15 16 18 21 21 21 22 21 22 22 19 16 16 18 18 20 26 23 17 18 20 14 7 4 2 0 0 1 1 2 5 5 5 6 7 9 11 11 12 12
10 10 11 12 12 13 15 17 17 18 18 18 19 18 17 17 17 17 17 18 20 20 16 13 14 14 11 9 7 7 6 6 6 5 7 7 8 9 10 10 11 10 10 11
8 7 9 10 11 12 14 15 16 16 17 18 17 17 17 17 17 18 18 17 16 15 14 15 16 17 15 13 11 8 6 6 5 7 10 9 10 10 10 11 9 9 9 9
Wind_Direction
283 289 286 294 347 338 322 324 309 333 14 24 339 313 297 291 291 290 289 284 281 281 280 281 282 276 263 241 234 228 224 239 264 274 276 281 293 303 298 294 277 257 245 238
288 288 286 78 31 3 11 353 337 340 19 337 310 287 275 275 274 278 282 283 283 279 282 283 279 280 283 269 262 249 240 238 230 235 257 270 273 278 284 290 293 273 246 231
301 332 283 218 27 16 29 14 349 343 316 311 303 289 287 295 294 293 300 302 307 311 310 310 308 298 298 293 288 286 281 283 282 269 274 274 278 291 293 296 300 293 261 231
304 302 299 78 48 22 357 252 152 331 291 275 279 294 302 298 299 309 310 309 310 308 306 306 304 300 295 291 289 287 287 289 294 290 286 282 280 280 283 289 292 287 271 239
316 319 104 116 18 351 320 277 232 282 308 316 319 311 302 322 332 318 313 311 308 306 305 305 302 299 297 293 288 280 277 284 289 286 283 279 273 273 279 288 288 276 260 259
341 318 341 44 350 328 301 279 246 306 322 321 319 309 314 325 314 309 308 308 307 306 303 300 299 298 295 292 291 287 286 287 284 277 276 275 271 271 271 274 280 282 266 251
343 325 65 12 342 329 302 328 326 320 317 315 312 306 306 307 307 309 309 308 306 303 301 302 304 302 296 292 289 289 287 287 289 280 274 265 259 261 264 269 273 281 280 255
332 322 343 358 343 333 318 318 317 315 313 312 310 306 304 306 308 309 308 307 307 307 303 304 304 300 295 291 287 289 289 290 290 280 273 265 258 260 260 263 266 269 272 258
313 315 319 320 324 313 320 317 315 314 313 313 310 307 308 309 309 308 306 304 306 307 309 309 301 295 292 288 287 281 275 282 284 278 268 265 262 261 257 251 252 263 267 257
307 293 305 313 314 320 322 316 315 313 310 312 309 310 310 310 310 308 305 304 304 307 303 300 296 290 283 285 285 277 277 281 277 272 275 265 259 255 254 255 245 253 265 245
285 309 315 310 322 324 317 316 315 314 311 311 312 311 311 311 312 311 308 306 308 308 300 297 296 292 293 290 282 274 272 276 268 250 262 271 261 258 262 257 250 263 249 234
313 319 314 313 320 317 318 319 318 317 315 313 312 311 312 313 312 310 310 309 308 307 300 297 296 292 290 290 282 271 269 268 267 261 244 249 269 265 244 244 212 228 231 211
303 310 311 311 315 319 320 318 318 316 314 314 315 314 314 313 311 310 308 308 311 311 303 299 296 298 302 301 296 285 269 259 249 243 245 247 256 262 248 202 176 207 218 199
315 317 314 317 320 320 320 318 317 316 317 316 316 316 315 312 310 310 311 314 316 310 303 300 298 302 308 314 304 295 284 258 238 231 244 243 237 237 231 213 193 193 203 187
321 319 316 319 320 321 321 321 320 320 321 320 320 319 318 315 313 312 317 319 313 309 305 301 299 304 312 308 304 299 281 249 226 239 242 240 243 227 205 211 206 187 166 182
318 319 323 324 323 323 324 325 324 323 322 323 323 322 320 317 316 317 319 314 313 313 310 305 299 300 307 303 306 310 291 247 240 255 240 230 224 202 185 202 203 201 182 174
321 324 327 327 327 325 326 326 325 324 324 325 324 322 322 322 322 319 317 315 313 312 310 304 301 304 304 293 290 279 271 265 235 230 225 220 202 181 180 200 203 191 178 159
321 322 326 327 326 325 326 326 326 326 326 324 325 325 326 326 321 318 318 316 314 310 309 312 314 324 322 313 300 240 241 312 211 213 191 182 167 161 186 185 175 172 166 161
326 325 325 325 327 326 326 326 328 327 326 327 329 330 326 321 318 317 319 321 324 326 329 332 334 340 338 356 14 46 143 168 200 203 173 167 168 163 131 121 183 236 204 172
326 327 326 325 328 329 327 330 330 329 330 330 333 331 325 322 321 323 324 325 333 336 329 333 343 351 345 38 43 60 81 114 168 179 179 191 186 146 127 215 239 230 203 185
329 329 327 328 328 329 331 332 333 333 332 335 338 331 325 323 325 327 330 331 335 337 333 331 339 352 359 8 294 190 130 139 143 147 164 178 163 158 186 225 232 156 150 161
329 330 328 327 327 330 332 333 336 334 336 339 334 328 325 327 331 331 333 338 333 338 335 330 338 347 339 332 325 343 100 114 131 144 146 147 136 140 209 259 148 139 151 162
328 330 328 328 330 329 331 338 338 339 342 339 331 329 331 329 332 333 334 334 336 339 345 358 2 199 244 254 253 242 124 141 147 140 126 100 56 52 269 158 141 137 153 165
326 330 329 329 332 333 338 340 338 343 346 341 334 337 342 337 335 340 337 334 338 342 350 14 6 348 294 300 282 265 139 129 126 118 101 74 37 158 130 140 139 138 152 168
326 327 329 335 335 339 337 342 343 346 349 341 341 346 347 345 338 332 337 339 339 346 356 13 16 13 19 23 47 90 64 83 77 109 130 151 164 155 146 133 127 134 144 152
323 326 330 331 336 339 340 348 345 348 346 343 345 346 345 345 342 340 340 342 342 347 357 12 24 25 28 35 52 65 90 125 143 151 139 147 142 131 119 116 121 128 129 135
316 323 329 331 345 343 344 346 349 348 346 348 341 346 348 345 345 345 343 346 349 348 0 15 25 32 32 34 36 44 74 98 123 125 123 117 112 116 122 122 126 131 134 138
Height
1498 1493 1493 1497 1502 1503 1503 1505 1507 1505 1515 1534 1536 1534 1531 1526 1521 1518 1513 1508 1504 1500 1497 1493 1490 1487 1483 1477 1472 1467 1463 1462 1464 1461 1458 1462 1461 1454 1453 1449 1447 1449 1448 1447
1500 1491 1493 1500 1515 1515 1518 1521 1516 1522 1530 1535 1533 1531 1526 1521 1517 1513 1508 1503 1499 1495 1491 1487 1483 1479 1476 1471 1467 1462 1455 1453 1455 1453 1451 1456 1458 1452 1448 1442 1436 1440 1440 1440
1498 1494 1497 1511 1531 1530 1532 1534 1532 1532 1538 1532 1528 1525 1519 1512 1507 1503 1500 1496 1492 1488 1484 1481 1477 1473 1469 1465 1463 1459 1456 1452 1450 1447 1445 1447 1447 1444 1441 1438 1430 1433 1430 1432
1501 1501 1508 1538 1535 1534 1534 1537 1536 1536 1534 1528 1522 1514 1509 1504 1499 1495 1493 1489 1485 1481 1477 1473 1469 1464 1459 1456 1453 1450 1447 1444 1440 1438 1438 1439 1438 1436 1435 1429 1426 1425 1425 1424
1506 1504 1525 1537 1534 1535 1534 1532 1533 1532 1523 1517 1513 1506 1499 1495 1494 1492 1489 1484 1479 1474 1470 1465 1460 1455 1449 1445 1442 1439 1437 1435 1433 1431 1429 1428 1428 1428 1426 1422 1421 1419 1419 1419
1511 1514 1512 1537 1535 1532 1529 1525 1529 1524 1517 1512 1507 1497 1491 1492 1491 1487 1482 1477 1472 1466 1461 1456 1450 1445 1438 1434 1431 1428 1426 1424 1423 1421 1420 1420 1420 1420 1419 1417 1415 1414 1411 1410
1520 1516 1523 1535 1532 1528 1523 1524 1522 1518 1513 1507 1503 1498 1492 1487 1483 1480 1474 1468 1462 1456 1451 1446 1441 1435 1429 1425 1422 1418 1415 1412 1411 1409 1409 1409 1410 1410 1410 1409 1407 1406 1404 1404
1522 1524 1534 1535 1532 1533 1529 1524 1520 1514 1510 1504 1498 1493 1487 1481 1475 1470 1464 1459 1452 1446 1441 1436 1431 1425 1418 1414 1410 1407 1404 1401 1400 1399 1399 1398 1399 1400 1400 1400 1399 1398 1397 1398
1534 1532 1535 1534 1534 1530 1527 1523 1517 1512 1506 1501 1493 1487 1480 1473 1467 1461 1455 1449 1443 1435 1429 1424 1420 1414 1407 1401 1398 1394 1391 1390 1389 1387 1387 1388 1388 1390 1391 1391 1391 1390 1389 1391
1538 1535 1534 1533 1531 1528 1525 1520 1514 1508 1501 1495 1488 1480 1473 1465 1459 1453 1446 1439 1431 1424 1416 1409 1405 1400 1395 1390 1385 1382 1379 1377 1376 1375 1376 1377 1378 1380 1382 1382 1381 1381 1380 1380
1535 1532 1533 1530 1528 1525 1520 1515 1508 1502 1496 1490 1482 1474 1467 1458 1451 1444 1436 1428 1421 1414 1405 1398 1392 1387 1382 1377 1373 1370 1367 1365 1365 1365 1366 1367 1369 1372 1374 1376 1376 1376 1374 1372
1536 1536 1534 1528 1525 1521 1515 1509 1503 1495 1488 1482 1476 1467 1459 1451 1443 1435 1426 1418 1410 1402 1395 1387 1380 1374 1369 1365 1361 1357 1355 1354 1354 1355 1356 1357 1360 1362 1365 1369 1370 1370 1369 1369
1539 1536 1531 1526 1521 1516 1510 1504 1497 1491 1484 1475 1468 1461 1452 1442 1434 1425 1417 1408 1399 1389 1382 1375 1369 1364 1359 1353 1350 1346 1344 1342 1342 1344 1346 1348 1351 1354 1357 1362 1364 1365 1365 1365
1537 1533 1527 1522 1517 1511 1505 1498 1491 1485 1478 1470 1461 1453 1444 1434 1424 1416 1407 1397 1388 1379 1370 1364 1358 1353 1349 1343 1338 1335 1332 1331 1331 1334 1338 1340 1343 1348 1353 1357 1360 1360 1360 1362
1533 1530 1524 1519 1513 1506 1500 1493 1485 1478 1470 1461 1454 1445 1435 1425 1415 1406 1396 1386 1378 1370 1362 1355 1349 1344 1339 1334 1330 1326 1324 1323 1324 1327 1330 1333 1336 1341 1347 1352 1354 1359 1358 1361
1529 1525 1520 1515 1508 1501 1494 1487 1480 1471 1462 1454 1446 1438 1428 1418 1407 1395 1385 1377 1370 1362 1353 1345 1340 1335 1330 1326 1323 1320 1317 1318 1319 1321 1324 1328 1331 1337 1342 1347 1350 1354 1358 1360
1525 1520 1515 1510 1504 1497 1490 1484 1477 1467 1458 1449 1440 1430 1420 1410 1398 1386 1376 1368 1361 1354 1346 1338 1334 1329 1324 1321 1318 1316 1314 1314 1314 1317 1322 1326 1331 1335 1340 1344 1348 1350 1352 1355
1523 1518 1513 1507 1500 1493 1486 1479 1472 1463 1454 1445 1435 1425 1414 1402 1391 1379 1370 1360 1353 1347 1341 1335 1329 1324 1320 1317 1315 1314 1315 1315 1316 1319 1323 1327 1331 1336 1339 1341 1343 1346 1348 1352
1519 1514 1509 1504 1498 1491 1483 1475 1467 1458 1450 1440 1430 1419 1408 1397 1385 1374 1365 1357 1350 1343 1337 1332 1327 1323 1320 1318 1316 1316 1318 1319 1320 1322 1325 1328 1332 1336 1338 1339 1340 1342 1345 1350
1516 1511 1505 1499 1493 1487 1479 1471 1464 1455 1447 1437 1427 1416 1403 1391 1380 1370 1360 1352 1347 1343 1335 1329 1327 1324 1323 1322 1320 1322 1322 1322 1324 1325 1326 1328 1332 1334 1335 1335 1334 1335 1340 1347
1512 1507 1501 1495 1489 1483 1476 1469 1462 1452 1443 1434 1424 1413 1400 1387 1377 1367 1357 1348 1342 1337 1332 1330 1329 1327 1326 1325 1325 1327 1326 1326 1327 1327 1328 1330 1332 1334 1333 1332 1330 1334 1339 1348
1509 1504 1498 1492 1485 1479 1473 1467 1460 1450 1441 1431 1421 1410 1398 1386 1376 1365 1355 1350 1342 1337 1333 1330 1330 1329 1328 1327 1328 1330 1330 1331 1331 1330 1329 1330 1331 1331 1329 1329 1333 1338 1345 1353
1506 1501 1495 1489 1483 1477 1471 1465 1458 1450 1440 1429 1419 1411 1401 1389 1379 1369 1358 1351 1345 1340 1337 1334 1331 1330 1330 1329 1330 1332 1333 1333 1334 1334 1333 1333 1332 1331 1330 1334 1339 1344 1351 1358
1502 1497 1492 1487 1481 1476 1470 1463 1457 1450 1441 1430 1420 1413 1403 1391 1380 1373 1365 1358 1351 1345 1340 1337 1333 1331 1331 1331 1332 1333 1335 1336 1337 1337 1336 1335 1334 1335 1338 1342 1346 1350 1355 1361
1498 1494 1489 1485 1480 1475 1470 1463 1456 1448 1440 1429 1420 1413 1404 1396 1387 1378 1371 1366 1359 1353 1348 1344 1340 1336 1335 1333 1333 1334 1335 1337 1338 1339 1339 1339 1340 1342 1346 1349 1352 1355 1359 1363
1494 1491 1487 1484 1479 1474 1469 1463 1456 1449 1441 1431 1422 1414 1405 1398 1391 1384 1378 1373 1367 1361 1356 1353 1351 1348 1345 1342 1341 1340 1339 1340 1341 1343 1345 1345 1347 1349 1352 1354 1357 1360 1364 1367
1492 1488 1485 1482 1478 1473 1469 1464 1458 1450 1443 1435 1425 1417 1409 1401 1394 1388 1383 1378 1374 1368 1366 1364 1361 1358 1356 1354 1351 1350 1349 1348 1348 1349 1350 1350 1352 1354 1357 1359 1362 1365 1368 1371